"Sample Date","Sample Time","Sensor Name","Sample Value","Units","Flow Rate","Sample Interval","Sample Volume","Laser Status","Number Channels","Micron Size 0","Counts/Channel 0","Micron Size 1","Counts/Channel 1","Micron Size 2","Counts/Channel 2","Micron Size 3","Counts/Channel 3","Micron Size 4","Counts/Channel 4","Micron Size 5","Counts/Channel 5","Micron Size 6","Counts/Channel 6","Micron Size 7","Counts/Channel 7","Micron Size 8","Counts/Channel 8","Micron Size 9","Counts/Channel 9","Micron Size 10","Counts/Channel 10","Micron Size 11","Counts/Channel 11","Micron Size 12","Counts/Channel 12","Micron Size 13","Counts/Channel 13","Micron Size 14","Counts/Channel 14","Micron Size 15","Counts/Channel 15","Micron Size 16","Counts/Channel 16","Micron Size 17","Counts/Channel 17","Micron Size 18","Counts/Channel 18","Micron Size 19","Counts/Channel 19","Micron Size 20","Counts/Channel 20","Micron Size 21","Counts/Channel 21","Micron Size 22","Counts/Channel 22","Micron Size 23","Counts/Channel 23","Micron Size 24","Counts/Channel 24","Micron Size 25","Counts/Channel 25","Micron Size 26","Counts/Channel 26","Micron Size 27","Counts/Channel 27","Micron Size 28","Counts/Channel 28","Micron Size 29","Counts/Channel 29","Micron Size 30","Counts/Channel 30","Micron Size 31","Counts/Channel 31"
"07/03/06","22:00:02","AMMA06",70471.000,"cc",28303.807,6.00,2830.381,1,6,0.100,35887.000,0.200,25586.000,0.300,5847.000,0.500,1922.000,1.000,1226.000,5.000,3.000
"07/03/06","22:00:08","AMMA06",70775.000,"cc",28315.902,6.00,2831.590,1,6,0.100,36147.000,0.200,25627.000,0.300,5791.000,0.500,1932.000,1.000,1277.000,5.000,1.000
"07/03/06","22:00:14","AMMA06",70629.000,"cc",28330.688,6.00,2833.069,1,6,0.100,35899.000,0.200,25577.000,0.300,5870.000,0.500,1995.000,1.000,1288.000,5.000,0
"07/03/06","22:00:20","AMMA06",70466.000,"cc",28358.268,6.00,2835.827,1,6,0.100,35836.000,0.200,25567.000,0.300,5804.000,0.500,2048.000,1.000,1210.000,5.000,1.000
"07/03/06","22:00:26","AMMA06",70643.000,"cc",28337.996,6.00,2833.800,1,6,0.100,36034.000,0.200,25596.000,0.300,5812.000,0.500,1949.000,1.000,1250.000,5.000,2.000
"07/03/06","22:00:32","AMMA06",70141.000,"cc",28292.449,6.00,2829.245,1,6,0.100,35819.000,0.200,25255.000,0.300,5804.000,0.500,2039.000,1.000,1222.000,5.000,2.000
"07/03/06","22:00:38","AMMA06",70213.000,"cc",28333.467,6.00,2833.347,1,6,0.100,35900.000,0.200,25493.000,0.300,5644.000,0.500,1956.000,1.000,1218.000,5.000,2.000
"07/03/06","22:00:44","AMMA06",70135.000,"cc",28322.734,6.00,2832.274,1,6,0.100,35648.000,0.200,25494.000,0.300,5793.000,0.500,1990.000,1.000,1208.000,5.000,2.000
"07/03/06","22:00:50","AMMA06",70299.000,"cc",28278.541,6.00,2827.854,1,6,0.100,36018.000,0.200,25361.000,0.300,5768.000,0.500,1931.000,1.000,1219.000,5.000,2.000
"07/03/06","22:00:56","AMMA06",69966.000,"cc",28294.820,6.00,2829.482,1,6,0.100,36014.000,0.200,25090.000,0.300,5706.000,0.500,1874.000,1.000,1281.000,5.000,1.000
"07/03/06","22:01:02","AMMA06",70398.000,"cc",28300.506,6.00,2830.051,1,6,0.100,36194.000,0.200,25346.000,0.300,5695.000,0.500,1975.000,1.000,1184.000,5.000,4.000
"07/03/06","22:01:08","AMMA06",69839.000,"cc",28339.022,6.00,2833.902,1,6,0.100,35804.000,0.200,25315.000,0.300,5626.000,0.500,1911.000,1.000,1182.000,5.000,1.000
"07/03/06","22:01:14","AMMA06",70341.000,"cc",28328.035,6.00,2832.804,1,6,0.100,36129.000,0.200,25265.000,0.300,5736.000,0.500,1991.000,1.000,1220.000,5.000,0
"07/03/06","22:01:20","AMMA06",70085.000,"cc",28319.125,6.00,2831.913,1,6,0.100,35987.000,0.200,25328.000,0.300,5638.000,0.500,1908.000,1.000,1220.000,5.000,4.000
"07/03/06","22:01:26","AMMA06",70169.000,"cc",28326.881,6.00,2832.688,1,6,0.100,35904.000,0.200,25495.000,0.300,5667.000,0.500,1946.000,1.000,1157.000,5.000,0
"07/03/06","22:01:32","AMMA06",69927.000,"cc",28294.818,6.00,2829.482,1,6,0.100,35793.000,0.200,25225.000,0.300,5786.000,0.500,1914.000,1.000,1207.000,5.000,2.000
"07/03/06","22:01:38","AMMA06",70243.000,"cc",28312.236,6.00,2831.224,1,6,0.100,36103.000,0.200,25141.000,0.300,5748.000,0.500,1995.000,1.000,1253.000,5.000,3.000
"07/03/06","22:01:44","AMMA06",70496.000,"cc",28325.037,6.00,2832.504,1,6,0.100,36091.000,0.200,25415.000,0.300,5837.000,0.500,1903.000,1.000,1249.000,5.000,1.000
"07/03/06","22:01:50","AMMA06",69599.000,"cc",28362.695,6.00,2836.270,1,6,0.100,35592.000,0.200,25266.000,0.300,5637.000,0.500,1935.000,1.000,1166.000,5.000,3.000
"07/03/06","22:01:56","AMMA06",70208.000,"cc",28341.250,6.00,2834.125,1,6,0.100,35826.000,0.200,25430.000,0.300,5817.000,0.500,1945.000,1.000,1190.000,5.000,0
"07/03/06","22:02:02","AMMA06",70357.000,"cc",28260.943,6.00,2826.095,1,6,0.100,36216.000,0.200,25412.000,0.300,5635.000,0.500,1927.000,1.000,1167.000,5.000,0
"07/03/06","22:02:08","AMMA06",70389.000,"cc",28341.414,6.00,2834.142,1,6,0.100,35807.000,0.200,25497.000,0.300,5887.000,0.500,1947.000,1.000,1250.000,5.000,1.000
"07/03/06","22:02:14","AMMA06",70309.000,"cc",28309.893,6.00,2830.990,1,6,0.100,35680.000,0.200,25432.000,0.300,5923.000,0.500,2002.000,1.000,1272.000,5.000,0
"07/03/06","22:02:20","AMMA06",70364.000,"cc",28303.231,6.00,2830.323,1,6,0.100,35815.000,0.200,25534.000,0.300,5818.000,0.500,1950.000,1.000,1245.000,5.000,2.000
"07/03/06","22:02:26","AMMA06",69835.000,"cc",28310.850,6.00,2831.085,1,6,0.100,35497.000,0.200,25228.000,0.300,5858.000,0.500,2055.000,1.000,1196.000,5.000,1.000
"07/03/06","22:02:32","AMMA06",70528.000,"cc",28295.984,6.00,2829.599,1,6,0.100,35653.000,0.200,25773.000,0.300,5962.000,0.500,1951.000,1.000,1189.000,5.000,0
"07/03/06","22:02:38","AMMA06",70533.000,"cc",28321.766,6.00,2832.177,1,6,0.100,35975.000,0.200,25703.000,0.300,5768.000,0.500,1870.000,1.000,1216.000,5.000,1.000
"07/03/06","22:02:44","AMMA06",70828.000,"cc",28294.766,6.00,2829.477,1,6,0.100,35732.000,0.200,25948.000,0.300,5905.000,0.500,1998.000,1.000,1244.000,5.000,1.000
"07/03/06","22:02:50","AMMA06",70489.000,"cc",28399.512,6.00,2839.951,1,6,0.100,35518.000,0.200,25920.000,0.300,5871.000,0.500,1933.000,1.000,1245.000,5.000,2.000
"07/03/06","22:02:56","AMMA06",70202.000,"cc",28305.869,6.00,2830.587,1,6,0.100,35680.000,0.200,25622.000,0.300,5690.000,0.500,1980.000,1.000,1230.000,5.000,0
"07/03/06","22:03:02","AMMA06",70460.000,"cc",28302.135,6.00,2830.214,1,6,0.100,35544.000,0.200,25773.000,0.300,5971.000,0.500,1941.000,1.000,1231.000,5.000,0
"07/03/06","22:03:08","AMMA06",70790.000,"cc",28313.783,6.00,2831.378,1,6,0.100,35591.000,0.200,26032.000,0.300,5976.000,0.500,1945.000,1.000,1246.000,5.000,0
"07/03/06","22:03:14","AMMA06",70494.000,"cc",28326.123,6.00,2832.613,1,6,0.100,35750.000,0.200,25633.000,0.300,5924.000,0.500,1947.000,1.000,1239.000,5.000,1.000
"07/03/06","22:03:20","AMMA06",70376.000,"cc",28301.982,6.00,2830.199,1,6,0.100,35456.000,0.200,25712.000,0.300,6017.000,0.500,1982.000,1.000,1208.000,5.000,1.000
"07/03/06","22:03:26","AMMA06",70179.000,"cc",28350.447,6.00,2835.045,1,6,0.100,35048.000,0.200,26010.000,0.300,5979.000,0.500,1857.000,1.000,1284.000,5.000,1.000
"07/03/06","22:03:32","AMMA06",70570.000,"cc",28334.703,6.00,2833.471,1,6,0.100,35336.000,0.200,26138.000,0.300,5987.000,0.500,1911.000,1.000,1197.000,5.000,1.000
"07/03/06","22:03:38","AMMA06",70251.000,"cc",28315.160,6.00,2831.516,1,6,0.100,35208.000,0.200,25739.000,0.300,6042.000,0.500,1960.000,1.000,1302.000,5.000,0
"07/03/06","22:03:44","AMMA06",70638.000,"cc",28337.441,6.00,2833.744,1,6,0.100,35460.000,0.200,25979.000,0.300,6144.000,0.500,1851.000,1.000,1202.000,5.000,2.000
"07/03/06","22:03:50","AMMA06",70389.000,"cc",28312.604,6.00,2831.261,1,6,0.100,35170.000,0.200,26016.000,0.300,6086.000,0.500,1858.000,1.000,1258.000,5.000,1.000
"07/03/06","22:03:56","AMMA06",70767.000,"cc",28299.422,6.00,2829.942,1,6,0.100,35540.000,0.200,25859.000,0.300,6131.000,0.500,1971.000,1.000,1263.000,5.000,3.000
"07/03/06","22:04:02","AMMA06",70647.000,"cc",28320.084,6.00,2832.009,1,6,0.100,35387.000,0.200,26062.000,0.300,6034.000,0.500,1917.000,1.000,1247.000,5.000,0
"07/03/06","22:04:08","AMMA06",70883.000,"cc",28286.316,6.00,2828.632,1,6,0.100,35023.000,0.200,26391.000,0.300,6229.000,0.500,1981.000,1.000,1259.000,5.000,0
"07/03/06","22:04:14","AMMA06",70657.000,"cc",28305.740,6.00,2830.574,1,6,0.100,34930.000,0.200,26277.000,0.300,6263.000,0.500,1929.000,1.000,1257.000,5.000,1.000
"07/03/06","22:04:20","AMMA06",71036.000,"cc",28287.654,6.00,2828.766,1,6,0.100,35080.000,0.200,26568.000,0.300,6229.000,0.500,1907.000,1.000,1249.000,5.000,3.000
"07/03/06","22:04:26","AMMA06",71133.000,"cc",28341.107,6.00,2834.111,1,6,0.100,35354.000,0.200,26478.000,0.300,6137.000,0.500,1938.000,1.000,1223.000,5.000,3.000
"07/03/06","22:04:32","AMMA06",71280.000,"cc",28374.725,6.00,2837.473,1,6,0.100,35383.000,0.200,26413.000,0.300,6315.000,0.500,1891.000,1.000,1278.000,5.000,0
"07/03/06","22:04:38","AMMA06",71053.000,"cc",28265.365,6.00,2826.537,1,6,0.100,35469.000,0.200,26124.000,0.300,6226.000,0.500,1941.000,1.000,1292.000,5.000,1.000
"07/03/06","22:04:44","AMMA06",70547.000,"cc",28275.955,6.00,2827.596,1,6,0.100,34743.000,0.200,26327.000,0.300,6324.000,0.500,1912.000,1.000,1241.000,5.000,0
"07/03/06","22:04:50","AMMA06",70896.000,"cc",28319.818,6.00,2831.982,1,6,0.100,34996.000,0.200,26439.000,0.300,6320.000,0.500,1888.000,1.000,1251.000,5.000,2.000
"07/03/06","22:04:56","AMMA06",70913.000,"cc",28287.828,6.00,2828.783,1,6,0.100,34928.000,0.200,26465.000,0.300,6310.000,0.500,1918.000,1.000,1292.000,5.000,0
"07/03/06","22:05:02","AMMA06",70818.000,"cc",28329.254,6.00,2832.926,1,6,0.100,35092.000,0.200,26339.000,0.300,6164.000,0.500,1873.000,1.000,1348.000,5.000,2.000
"07/03/06","22:05:08","AMMA06",70527.000,"cc",28327.791,6.00,2832.779,1,6,0.100,34784.000,0.200,26200.000,0.300,6306.000,0.500,1968.000,1.000,1269.000,5.000,0
"07/03/06","22:05:14","AMMA06",71404.000,"cc",28312.871,6.00,2831.287,1,6,0.100,35350.000,0.200,26388.000,0.300,6474.000,0.500,1908.000,1.000,1281.000,5.000,3.000
"07/03/06","22:05:20","AMMA06",70543.000,"cc",28357.232,6.00,2835.723,1,6,0.100,34830.000,0.200,26254.000,0.300,6220.000,0.500,1947.000,1.000,1290.000,5.000,2.000
"07/03/06","22:05:26","AMMA06",70749.000,"cc",28334.682,6.00,2833.468,1,6,0.100,34925.000,0.200,26324.000,0.300,6319.000,0.500,1896.000,1.000,1285.000,5.000,0
"07/03/06","22:05:32","AMMA06",70395.000,"cc",28280.457,6.00,2828.046,1,6,0.100,34779.000,0.200,26231.000,0.300,6259.000,0.500,1937.000,1.000,1189.000,5.000,0
"07/03/06","22:05:38","AMMA06",70798.000,"cc",28337.373,6.00,2833.738,1,6,0.100,35138.000,0.200,26217.000,0.300,6241.000,0.500,1911.000,1.000,1288.000,5.000,3.000
"07/03/06","22:05:44","AMMA06",70844.000,"cc",28349.635,6.00,2834.964,1,6,0.100,35237.000,0.200,26133.000,0.300,6259.000,0.500,1974.000,1.000,1240.000,5.000,1.000
"07/03/06","22:05:50","AMMA06",70348.000,"cc",28254.106,6.00,2825.411,1,6,0.100,35011.000,0.200,25990.000,0.300,6203.000,0.500,1938.000,1.000,1206.000,5.000,0
"07/03/06","22:05:56","AMMA06",70669.000,"cc",28321.908,6.00,2832.191,1,6,0.100,35126.000,0.200,26209.000,0.300,6108.000,0.500,1963.000,1.000,1262.000,5.000,1.000
"07/03/06","22:06:02","AMMA06",70433.000,"cc",28322.832,6.00,2832.283,1,6,0.100,35000.000,0.200,26092.000,0.300,6208.000,0.500,1934.000,1.000,1195.000,5.000,4.000
"07/03/06","22:06:08","AMMA06",70917.000,"cc",28321.703,6.00,2832.170,1,6,0.100,35400.000,0.200,26308.000,0.300,6077.000,0.500,1901.000,1.000,1230.000,5.000,1.000
"07/03/06","22:06:14","AMMA06",70973.000,"cc",28320.740,6.00,2832.074,1,6,0.100,35440.000,0.200,26263.000,0.300,6050.000,0.500,2024.000,1.000,1196.000,5.000,0
"07/03/06","22:06:20","AMMA06",70580.000,"cc",28280.897,6.00,2828.090,1,6,0.100,35323.000,0.200,26041.000,0.300,6059.000,0.500,1958.000,1.000,1199.000,5.000,0
"07/03/06","22:06:26","AMMA06",70633.000,"cc",28338.953,6.00,2833.896,1,6,0.100,35358.000,0.200,26016.000,0.300,5995.000,0.500,1922.000,1.000,1340.000,5.000,2.000
"07/03/06","22:06:32","AMMA06",70246.000,"cc",28374.754,6.00,2837.476,1,6,0.100,34953.000,0.200,26075.000,0.300,6037.000,0.500,1957.000,1.000,1223.000,5.000,1.000
"07/03/06","22:06:38","AMMA06",70657.000,"cc",28302.586,6.00,2830.259,1,6,0.100,35276.000,0.200,26153.000,0.300,6132.000,0.500,1892.000,1.000,1202.000,5.000,2.000
"07/03/06","22:06:44","AMMA06",70484.000,"cc",28319.354,6.00,2831.936,1,6,0.100,35012.000,0.200,26164.000,0.300,6047.000,0.500,2030.000,1.000,1228.000,5.000,3.000
"07/03/06","22:06:50","AMMA06",70220.000,"cc",28311.717,6.00,2831.172,1,6,0.100,35396.000,0.200,25643.000,0.300,5937.000,0.500,1967.000,1.000,1275.000,5.000,2.000
"07/03/06","22:06:56","AMMA06",70362.000,"cc",28340.039,6.00,2834.004,1,6,0.100,35248.000,0.200,25939.000,0.300,5996.000,0.500,1940.000,1.000,1236.000,5.000,3.000
"07/03/06","22:07:02","AMMA06",70236.000,"cc",28326.492,6.00,2832.649,1,6,0.100,35153.000,0.200,25865.000,0.300,6054.000,0.500,1909.000,1.000,1252.000,5.000,3.000
"07/03/06","22:07:08","AMMA06",70026.000,"cc",28272.227,6.00,2827.223,1,6,0.100,35161.000,0.200,25655.000,0.300,6102.000,0.500,1915.000,1.000,1190.000,5.000,3.000
"07/03/06","22:07:14","AMMA06",70528.000,"cc",28305.504,6.00,2830.551,1,6,0.100,35457.000,0.200,25886.000,0.300,5936.000,0.500,1991.000,1.000,1257.000,5.000,1.000
"07/03/06","22:07:20","AMMA06",69922.000,"cc",28351.041,6.00,2835.104,1,6,0.100,35073.000,0.200,25699.000,0.300,5961.000,0.500,1915.000,1.000,1273.000,5.000,1.000
"07/03/06","22:07:26","AMMA06",69889.000,"cc",28320.211,6.00,2832.021,1,6,0.100,35173.000,0.200,25652.000,0.300,5852.000,0.500,1969.000,1.000,1243.000,5.000,0
"07/03/06","22:07:32","AMMA06",70185.000,"cc",28309.861,6.00,2830.986,1,6,0.100,35374.000,0.200,25605.000,0.300,5868.000,0.500,2030.000,1.000,1307.000,5.000,1.000
"07/03/06","22:07:38","AMMA06",70198.000,"cc",28347.221,6.00,2834.722,1,6,0.100,35252.000,0.200,25794.000,0.300,5905.000,0.500,2010.000,1.000,1236.000,5.000,1.000
"07/03/06","22:07:44","AMMA06",69904.000,"cc",28261.940,6.00,2826.194,1,6,0.100,35376.000,0.200,25488.000,0.300,5915.000,0.500,1918.000,1.000,1206.000,5.000,1.000
"07/03/06","22:07:50","AMMA06",70258.000,"cc",28306.090,6.00,2830.609,1,6,0.100,35662.000,0.200,25587.000,0.300,5850.000,0.500,1956.000,1.000,1201.000,5.000,2.000
"07/03/06","22:07:56","AMMA06",70066.000,"cc",28369.012,6.00,2836.901,1,6,0.100,35490.000,0.200,25464.000,0.300,5925.000,0.500,1977.000,1.000,1210.000,5.000,0
"07/03/06","22:08:02","AMMA06",69986.000,"cc",28297.451,6.00,2829.745,1,6,0.100,35173.000,0.200,25682.000,0.300,5895.000,0.500,1998.000,1.000,1237.000,5.000,1.000
"07/03/06","22:08:08","AMMA06",70241.000,"cc",28324.791,6.00,2832.479,1,6,0.100,35834.000,0.200,25400.000,0.300,5854.000,0.500,1974.000,1.000,1179.000,5.000,0
"07/03/06","22:08:14","AMMA06",70297.000,"cc",28347.256,6.00,2834.726,1,6,0.100,35585.000,0.200,25574.000,0.300,5899.000,0.500,2043.000,1.000,1194.000,5.000,2.000
"07/03/06","22:08:20","AMMA06",70171.000,"cc",28263.539,6.00,2826.354,1,6,0.100,35371.000,0.200,25738.000,0.300,5867.000,0.500,2018.000,1.000,1176.000,5.000,1.000
"07/03/06","22:08:26","AMMA06",70386.000,"cc",28285.475,6.00,2828.548,1,6,0.100,35726.000,0.200,25696.000,0.300,5773.000,0.500,2008.000,1.000,1181.000,5.000,2.000
"07/03/06","22:08:32","AMMA06",70137.000,"cc",28319.414,6.00,2831.942,1,6,0.100,35817.000,0.200,25385.000,0.300,5714.000,0.500,1997.000,1.000,1224.000,5.000,0
"07/03/06","22:08:38","AMMA06",70239.000,"cc",28354.477,6.00,2835.448,1,6,0.100,35922.000,0.200,25421.000,0.300,5765.000,0.500,1948.000,1.000,1182.000,5.000,1.000
"07/03/06","22:08:44","AMMA06",70374.000,"cc",28345.482,6.00,2834.548,1,6,0.100,35709.000,0.200,25589.000,0.300,5886.000,0.500,1922.000,1.000,1265.000,5.000,3.000
"07/03/06","22:08:50","AMMA06",70570.000,"cc",28274.793,6.00,2827.480,1,6,0.100,35959.000,0.200,25637.000,0.300,5771.000,0.500,1989.000,1.000,1212.000,5.000,2.000
"07/03/06","22:08:56","AMMA06",70240.000,"cc",28350.660,6.00,2835.066,1,6,0.100,35616.000,0.200,25591.000,0.300,5805.000,0.500,2004.000,1.000,1224.000,5.000,0
"07/03/06","22:09:02","AMMA06",69785.000,"cc",28316.004,6.00,2831.601,1,6,0.100,35558.000,0.200,25456.000,0.300,5567.000,0.500,1998.000,1.000,1204.000,5.000,2.000
"07/03/06","22:09:08","AMMA06",69696.000,"cc",28319.168,6.00,2831.917,1,6,0.100,35626.000,0.200,25369.000,0.300,5645.000,0.500,1829.000,1.000,1227.000,5.000,0
"07/03/06","22:09:14","AMMA06",70078.000,"cc",28296.793,6.00,2829.679,1,6,0.100,35684.000,0.200,25620.000,0.300,5663.000,0.500,1899.000,1.000,1211.000,5.000,1.000
"07/03/06","22:09:20","AMMA06",70153.000,"cc",28327.969,6.00,2832.797,1,6,0.100,35854.000,0.200,25411.000,0.300,5749.000,0.500,1927.000,1.000,1212.000,5.000,0
"07/03/06","22:09:26","AMMA06",69924.000,"cc",28353.350,6.00,2835.335,1,6,0.100,35742.000,0.200,25358.000,0.300,5659.000,0.500,1997.000,1.000,1168.000,5.000,0
"07/03/06","22:09:32","AMMA06",70466.000,"cc",28280.055,6.00,2828.006,1,6,0.100,36210.000,0.200,25429.000,0.300,5650.000,0.500,2001.000,1.000,1175.000,5.000,1.000
"07/03/06","22:09:38","AMMA06",70064.000,"cc",28313.471,6.00,2831.347,1,6,0.100,35618.000,0.200,25454.000,0.300,5772.000,0.500,1988.000,1.000,1231.000,5.000,1.000
"07/03/06","22:09:44","AMMA06",69493.000,"cc",28315.709,6.00,2831.571,1,6,0.100,35354.000,0.200,25191.000,0.300,5662.000,0.500,2029.000,1.000,1254.000,5.000,3.000
"07/03/06","22:09:50","AMMA06",69805.000,"cc",28333.338,6.00,2833.334,1,6,0.100,35778.000,0.200,25196.000,0.300,5657.000,0.500,1954.000,1.000,1220.000,5.000,0
"07/03/06","22:09:56","AMMA06",69580.000,"cc",28282.861,6.00,2828.286,1,6,0.100,35447.000,0.200,25267.000,0.300,5661.000,0.500,1984.000,1.000,1216.000,5.000,5.000
"07/03/06","22:10:02","AMMA06",69973.000,"cc",28302.674,6.00,2830.268,1,6,0.100,35407.000,0.200,25514.000,0.300,5811.000,0.500,2024.000,1.000,1214.000,5.000,3.000
"07/03/06","22:10:08","AMMA06",69895.000,"cc",28356.615,6.00,2835.662,1,6,0.100,35705.000,0.200,25208.000,0.300,5793.000,0.500,1991.000,1.000,1198.000,5.000,0
"07/03/06","22:10:14","AMMA06",69935.000,"cc",28327.772,6.00,2832.777,1,6,0.100,35540.000,0.200,25441.000,0.300,5800.000,0.500,1973.000,1.000,1179.000,5.000,2.000
"07/03/06","22:10:20","AMMA06",70265.000,"cc",28306.000,6.00,2830.600,1,6,0.100,35681.000,0.200,25539.000,0.300,5805.000,0.500,1986.000,1.000,1251.000,5.000,3.000
"07/03/06","22:10:26","AMMA06",69387.000,"cc",28314.170,6.00,2831.417,1,6,0.100,35241.000,0.200,25137.000,0.300,5743.000,0.500,1994.000,1.000,1271.000,5.000,1.000
"07/03/06","22:10:32","AMMA06",69421.000,"cc",28307.633,6.00,2830.763,1,6,0.100,35301.000,0.200,25260.000,0.300,5642.000,0.500,1995.000,1.000,1222.000,5.000,1.000
"07/03/06","22:10:38","AMMA06",69830.000,"cc",28302.602,6.00,2830.260,1,6,0.100,35456.000,0.200,25630.000,0.300,5578.000,0.500,1948.000,1.000,1217.000,5.000,1.000
"07/03/06","22:10:44","AMMA06",70107.000,"cc",28365.592,6.00,2836.559,1,6,0.100,35554.000,0.200,25604.000,0.300,5770.000,0.500,1932.000,1.000,1246.000,5.000,1.000
"07/03/06","22:10:50","AMMA06",69661.000,"cc",28297.945,6.00,2829.795,1,6,0.100,35313.000,0.200,25394.000,0.300,5770.000,0.500,1934.000,1.000,1250.000,5.000,0
"07/03/06","22:10:56","AMMA06",69793.000,"cc",28298.832,6.00,2829.883,1,6,0.100,35327.000,0.200,25413.000,0.300,5793.000,0.500,1984.000,1.000,1276.000,5.000,0
"07/03/06","22:11:02","AMMA06",70388.000,"cc",28315.566,6.00,2831.557,1,6,0.100,35728.000,0.200,25569.000,0.300,5919.000,0.500,1941.000,1.000,1229.000,5.000,2.000
"07/03/06","22:11:08","AMMA06",70020.000,"cc",28332.549,6.00,2833.255,1,6,0.100,35520.000,0.200,25471.000,0.300,5884.000,0.500,1959.000,1.000,1186.000,5.000,0
"07/03/06","22:11:14","AMMA06",70105.000,"cc",28328.334,6.00,2832.834,1,6,0.100,35131.000,0.200,25885.000,0.300,5810.000,0.500,1993.000,1.000,1281.000,5.000,5.000
"07/03/06","22:11:20","AMMA06",69558.000,"cc",28275.111,6.00,2827.511,1,6,0.100,35024.000,0.200,25455.000,0.300,5959.000,0.500,1882.000,1.000,1237.000,5.000,1.000
"07/03/06","22:11:26","AMMA06",70166.000,"cc",28332.080,6.00,2833.208,1,6,0.100,35499.000,0.200,25432.000,0.300,6070.000,0.500,1953.000,1.000,1210.000,5.000,2.000
"07/03/06","22:11:32","AMMA06",70430.000,"cc",28271.871,6.00,2827.187,1,6,0.100,35440.000,0.200,26045.000,0.300,5798.000,0.500,1925.000,1.000,1221.000,5.000,1.000
"07/03/06","22:11:38","AMMA06",70526.000,"cc",28303.162,6.00,2830.316,1,6,0.100,35359.000,0.200,25886.000,0.300,6159.000,0.500,1938.000,1.000,1182.000,5.000,2.000
"07/03/06","22:11:44","AMMA06",70447.000,"cc",28322.051,6.00,2832.205,1,6,0.100,35445.000,0.200,25854.000,0.300,5849.000,0.500,2014.000,1.000,1285.000,5.000,0
"07/03/06","22:11:50","AMMA06",70079.000,"cc",28394.166,6.00,2839.417,1,6,0.100,35440.000,0.200,25621.000,0.300,6009.000,0.500,1832.000,1.000,1176.000,5.000,1.000
"07/03/06","22:11:56","AMMA06",69896.000,"cc",28341.910,6.00,2834.191,1,6,0.100,35205.000,0.200,25701.000,0.300,5870.000,0.500,1889.000,1.000,1230.000,5.000,1.000
"07/03/06","22:12:02","AMMA06",70599.000,"cc",28280.279,6.00,2828.028,1,6,0.100,35402.000,0.200,25922.000,0.300,6082.000,0.500,2000.000,1.000,1192.000,5.000,1.000
"07/03/06","22:12:08","AMMA06",70399.000,"cc",28284.932,6.00,2828.493,1,6,0.100,35301.000,0.200,25892.000,0.300,5950.000,0.500,1928.000,1.000,1327.000,5.000,1.000
"07/03/06","22:12:14","AMMA06",70530.000,"cc",28319.148,6.00,2831.915,1,6,0.100,35334.000,0.200,25896.000,0.300,6115.000,0.500,1888.000,1.000,1297.000,5.000,0
"07/03/06","22:12:20","AMMA06",70849.000,"cc",28308.072,6.00,2830.807,1,6,0.100,35666.000,0.200,25796.000,0.300,6083.000,0.500,2058.000,1.000,1245.000,5.000,1.000
"07/03/06","22:12:26","AMMA06",70696.000,"cc",28264.815,6.00,2826.482,1,6,0.100,35124.000,0.200,26190.000,0.300,6119.000,0.500,1991.000,1.000,1270.000,5.000,2.000
"07/03/06","22:12:32","AMMA06",70446.000,"cc",28339.908,6.00,2833.991,1,6,0.100,35315.000,0.200,25801.000,0.300,6049.000,0.500,1984.000,1.000,1297.000,5.000,0
"07/03/06","22:12:38","AMMA06",70930.000,"cc",28352.672,6.00,2835.267,1,6,0.100,35579.000,0.200,26073.000,0.300,6027.000,0.500,1995.000,1.000,1254.000,5.000,2.000
"07/03/06","22:12:44","AMMA06",70527.000,"cc",28331.572,6.00,2833.158,1,6,0.100,35143.000,0.200,26080.000,0.300,6159.000,0.500,1864.000,1.000,1280.000,5.000,1.000
"07/03/06","22:12:50","AMMA06",70508.000,"cc",28365.348,6.00,2836.535,1,6,0.100,35085.000,0.200,26081.000,0.300,6174.000,0.500,1930.000,1.000,1237.000,5.000,1.000
"07/03/06","22:12:56","AMMA06",70150.000,"cc",28291.668,6.00,2829.167,1,6,0.100,34849.000,0.200,26023.000,0.300,6127.000,0.500,1939.000,1.000,1211.000,5.000,1.000
"07/03/06","22:13:02","AMMA06",70257.000,"cc",28333.797,6.00,2833.380,1,6,0.100,35077.000,0.200,25901.000,0.300,6194.000,0.500,1859.000,1.000,1224.000,5.000,2.000
"07/03/06","22:13:08","AMMA06",70509.000,"cc",28317.334,6.00,2831.734,1,6,0.100,35315.000,0.200,25922.000,0.300,6133.000,0.500,1907.000,1.000,1229.000,5.000,3.000
"07/03/06","22:13:14","AMMA06",70507.000,"cc",28245.457,6.00,2824.546,1,6,0.100,34989.000,0.200,26202.000,0.300,6178.000,0.500,1862.000,1.000,1276.000,5.000,0
"07/03/06","22:13:20","AMMA06",70777.000,"cc",28359.014,6.00,2835.902,1,6,0.100,35075.000,0.200,26204.000,0.300,6305.000,0.500,1906.000,1.000,1284.000,5.000,3.000
"07/03/06","22:13:26","AMMA06",70186.000,"cc",28367.481,6.00,2836.748,1,6,0.100,34738.000,0.200,26016.000,0.300,6220.000,0.500,1882.000,1.000,1330.000,5.000,0
"07/03/06","22:13:32","AMMA06",70856.000,"cc",28273.229,6.00,2827.323,1,6,0.100,34897.000,0.200,26453.000,0.300,6332.000,0.500,1914.000,1.000,1257.000,5.000,3.000
"07/03/06","22:13:38","AMMA06",70311.000,"cc",28293.701,6.00,2829.370,1,6,0.100,34778.000,0.200,26185.000,0.300,6193.000,0.500,1895.000,1.000,1258.000,5.000,2.000
"07/03/06","22:13:44","AMMA06",70264.000,"cc",28335.014,6.00,2833.502,1,6,0.100,34420.000,0.200,26435.000,0.300,6264.000,0.500,1866.000,1.000,1278.000,5.000,1.000
"07/03/06","22:13:50","AMMA06",70815.000,"cc",28342.897,6.00,2834.290,1,6,0.100,34973.000,0.200,26298.000,0.300,6392.000,0.500,1898.000,1.000,1253.000,5.000,1.000